Year,Month,Day,Hour,Minute,Value (Times are PST for temperature in C)
2014,02,07,00,00,-6.90
2014,02,07,00,01,-6.90
2014,02,07,00,02,-6.80
2014,02,07,00,03,-6.80
2014,02,07,00,04,-6.80
2014,02,07,00,05,-6.80
2014,02,07,00,06,-6.80
2014,02,07,00,07,-6.90
2014,02,07,00,08,-6.90
2014,02,07,00,09,-6.90
2014,02,07,00,10,-6.90
2014,02,07,00,11,-6.90
2014,02,07,00,12,-6.90
2014,02,07,00,17,-7.00
2014,02,07,00,18,-7.00
2014,02,07,00,19,-7.00
2014,02,07,00,20,-7.00
2014,02,07,00,21,-7.00
2014,02,07,00,22,-7.00
2014,02,07,00,23,-7.00
2014,02,07,00,24,-7.00
2014,02,07,00,25,-7.00
2014,02,07,00,26,-7.10
2014,02,07,00,27,-7.10
2014,02,07,00,28,-7.10
2014,02,07,00,29,-7.10
2014,02,07,00,30,-7.10
2014,02,07,00,31,-7.10
2014,02,07,00,32,-7.10
2014,02,07,00,33,-7.10
2014,02,07,00,34,-7.10
2014,02,07,00,35,-7.10
2014,02,07,00,36,-7.10
2014,02,07,00,37,-7.10
2014,02,07,00,38,-7.10
2014,02,07,00,39,-7.00
2014,02,07,00,40,-7.00
2014,02,07,00,41,-7.00
2014,02,07,00,42,-7.00
2014,02,07,00,43,-7.00
2014,02,07,00,44,-7.00
2014,02,07,00,45,-7.10
2014,02,07,00,46,-7.10
2014,02,07,00,47,-7.00
2014,02,07,00,48,-7.10
2014,02,07,00,49,-7.10
2014,02,07,00,50,-7.10
2014,02,07,00,51,-7.10
2014,02,07,00,52,-7.10
2014,02,07,00,53,-7.10
2014,02,07,00,54,-7.10
2014,02,07,00,55,-7.10
2014,02,07,00,56,-7.10
2014,02,07,00,57,-7.20
2014,02,07,00,58,-7.20
2014,02,07,00,59,-7.20
2014,02,07,01,00,-7.20
2014,02,07,01,01,-7.20
2014,02,07,01,02,-7.20
2014,02,07,01,03,-7.20
2014,02,07,01,04,-7.20
2014,02,07,01,05,-7.20
2014,02,07,01,06,-7.20
2014,02,07,01,07,-7.20
2014,02,07,01,08,-7.20
2014,02,07,01,09,-7.20
2014,02,07,01,10,-7.20
2014,02,07,01,11,-7.20
2014,02,07,01,12,-7.20
2014,02,07,01,13,-7.20
2014,02,07,01,14,-7.20
2014,02,07,01,15,-7.20
2014,02,07,01,16,-7.20
2014,02,07,01,17,-7.20
2014,02,07,01,18,-7.30
2014,02,07,01,19,-7.30
2014,02,07,01,20,-7.30
2014,02,07,01,21,-7.30
2014,02,07,01,22,-7.30
2014,02,07,01,23,-7.30
2014,02,07,01,24,-7.30
2014,02,07,01,25,-7.30
2014,02,07,01,26,-7.30
2014,02,07,01,27,-7.40
2014,02,07,01,28,-7.40
2014,02,07,01,29,-7.40
2014,02,07,01,30,-7.40
2014,02,07,01,31,-7.40
2014,02,07,01,32,-7.50
2014,02,07,01,33,-7.50
2014,02,07,01,34,-7.50
2014,02,07,01,35,-7.50
2014,02,07,01,36,-7.50
2014,02,07,01,37,-7.60
2014,02,07,01,38,-7.60
2014,02,07,01,39,-7.60
2014,02,07,01,40,-7.60
2014,02,07,01,41,-7.60
2014,02,07,01,42,-7.60
2014,02,07,01,43,-7.60
2014,02,07,01,44,-7.60
2014,02,07,01,45,-7.60
2014,02,07,01,46,-7.60
2014,02,07,01,47,-7.60
2014,02,07,01,48,-7.60
2014,02,07,01,49,-7.50
2014,02,07,01,50,-7.50
2014,02,07,01,51,-7.50
2014,02,07,01,52,-7.50
2014,02,07,01,53,-7.50
2014,02,07,01,54,-7.50
2014,02,07,01,55,-7.50
2014,02,07,01,56,-7.50
2014,02,07,01,57,-7.50
2014,02,07,01,58,-7.50
2014,02,07,01,59,-7.50
2014,02,07,02,00,-7.60
2014,02,07,02,01,-7.60
2014,02,07,02,02,-7.60
2014,02,07,02,03,-7.60
2014,02,07,02,04,-7.60
2014,02,07,02,05,-7.60
2014,02,07,02,06,-7.60
2014,02,07,02,07,-7.60
2014,02,07,02,08,-7.60
2014,02,07,02,09,-7.60
2014,02,07,02,10,-7.60
2014,02,07,02,11,-7.60
2014,02,07,02,12,-7.60
2014,02,07,02,13,-7.60
2014,02,07,02,14,-7.60
2014,02,07,02,15,-7.60
2014,02,07,02,16,-7.60
2014,02,07,02,17,-7.60
2014,02,07,02,18,-7.60
2014,02,07,02,19,-7.60
2014,02,07,02,20,-7.60
2014,02,07,02,21,-7.60
2014,02,07,02,22,-7.60
2014,02,07,02,23,-7.60
2014,02,07,02,24,-7.60
2014,02,07,02,25,-7.60
2014,02,07,02,26,-7.60
2014,02,07,02,27,-7.60
2014,02,07,02,28,-7.60
2014,02,07,02,29,-7.60
2014,02,07,02,30,-7.60
2014,02,07,02,31,-7.60
2014,02,07,02,32,-7.60
2014,02,07,02,33,-7.60
2014,02,07,02,34,-7.60
2014,02,07,02,35,-7.60
2014,02,07,02,36,-7.70
2014,02,07,02,37,-7.70
2014,02,07,02,38,-7.70
2014,02,07,02,39,-7.70
2014,02,07,02,40,-7.70
2014,02,07,02,41,-7.70
2014,02,07,02,42,-7.70
2014,02,07,02,43,-7.80
2014,02,07,02,44,-7.80
2014,02,07,02,45,-7.80
2014,02,07,02,46,-7.80
2014,02,07,02,47,-7.80
2014,02,07,02,48,-7.80
2014,02,07,02,49,-7.80
2014,02,07,02,50,-7.80
2014,02,07,02,51,-7.80
2014,02,07,02,52,-7.80
2014,02,07,02,53,-7.80
2014,02,07,02,54,-7.80
2014,02,07,02,55,-7.80
2014,02,07,02,56,-7.90
2014,02,07,02,57,-7.90
2014,02,07,02,58,-7.90
2014,02,07,02,59,-7.90
2014,02,07,03,00,-7.90
2014,02,07,03,01,-8.00
2014,02,07,03,02,-8.00
2014,02,07,03,03,-8.00
2014,02,07,03,04,-8.00
2014,02,07,03,05,-8.10
2014,02,07,03,06,-8.10
2014,02,07,03,07,-8.10
2014,02,07,03,08,-8.10
2014,02,07,03,09,-8.10
2014,02,07,03,10,-8.10
2014,02,07,03,11,-8.10
2014,02,07,03,12,-8.10
2014,02,07,03,13,-8.10
2014,02,07,03,14,-8.20
2014,02,07,03,15,-8.20
2014,02,07,03,16,-8.20
2014,02,07,03,17,-8.20
2014,02,07,03,18,-8.20
2014,02,07,03,19,-8.20
2014,02,07,03,20,-8.20
2014,02,07,03,21,-8.20
2014,02,07,03,22,-8.20
2014,02,07,03,23,-8.20
2014,02,07,03,24,-8.30
2014,02,07,03,25,-8.30
2014,02,07,03,26,-8.30
2014,02,07,03,27,-8.30
2014,02,07,03,28,-8.30
2014,02,07,03,29,-8.30
2014,02,07,03,30,-8.30
2014,02,07,03,31,-8.30
2014,02,07,03,32,-8.30
2014,02,07,03,33,-8.30
2014,02,07,03,34,-8.30
2014,02,07,03,35,-8.30
2014,02,07,03,36,-8.30
2014,02,07,03,37,-8.30
2014,02,07,03,38,-8.30
2014,02,07,03,39,-8.30
2014,02,07,03,40,-8.30
2014,02,07,03,41,-8.30
2014,02,07,03,42,-8.30
2014,02,07,03,43,-8.30
2014,02,07,03,44,-8.30
2014,02,07,03,45,-8.30
2014,02,07,03,46,-8.30
2014,02,07,03,47,-8.30
2014,02,07,03,48,-8.30
2014,02,07,03,49,-8.30
2014,02,07,03,50,-8.30
2014,02,07,03,51,-8.30
2014,02,07,03,52,-8.20
2014,02,07,03,53,-8.20
2014,02,07,03,54,-8.20
2014,02,07,03,55,-8.20
2014,02,07,03,56,-8.20
2014,02,07,03,57,-8.20
2014,02,07,03,58,-8.20
2014,02,07,03,59,-8.20
2014,02,07,04,00,-8.20
2014,02,07,04,01,-8.20
2014,02,07,04,02,-8.20
2014,02,07,04,03,-8.20
2014,02,07,04,04,-8.20
2014,02,07,04,05,-8.20
2014,02,07,04,06,-8.20
2014,02,07,04,07,-8.20
2014,02,07,04,08,-8.10
2014,02,07,04,09,-8.10
2014,02,07,04,10,-8.10
2014,02,07,04,11,-8.10
2014,02,07,04,12,-8.10
2014,02,07,04,13,-8.10
2014,02,07,04,14,-8.10
2014,02,07,04,15,-8.10
2014,02,07,04,16,-8.10
2014,02,07,04,17,-8.10
2014,02,07,04,18,-8.10
2014,02,07,04,19,-8.10
2014,02,07,04,20,-8.10
2014,02,07,04,21,-8.10
2014,02,07,04,22,-8.10
2014,02,07,04,23,-8.10
2014,02,07,04,24,-8.10
2014,02,07,04,25,-8.10
2014,02,07,04,26,-8.10
2014,02,07,04,27,-8.10
2014,02,07,04,28,-8.10
2014,02,07,04,29,-8.10
2014,02,07,04,30,-8.10
2014,02,07,04,31,-8.10
2014,02,07,04,32,-8.20
2014,02,07,04,33,-8.20
2014,02,07,04,34,-8.20
2014,02,07,04,35,-8.20
2014,02,07,04,36,-8.20
2014,02,07,04,37,-8.20
2014,02,07,04,38,-8.10
2014,02,07,04,39,-8.10
2014,02,07,04,40,-8.10
2014,02,07,04,41,-8.10
2014,02,07,04,42,-8.10
2014,02,07,04,43,-8.10
2014,02,07,04,44,-8.10
2014,02,07,04,45,-8.10
2014,02,07,04,46,-8.10
2014,02,07,04,47,-8.10
2014,02,07,04,48,-8.10
2014,02,07,04,49,-8.10
2014,02,07,04,50,-8.10
2014,02,07,04,51,-8.10
2014,02,07,04,52,-8.10
2014,02,07,04,53,-8.10
2014,02,07,04,54,-8.10
2014,02,07,04,55,-8.10
2014,02,07,04,56,-8.10
2014,02,07,04,57,-8.20
2014,02,07,04,58,-8.20
2014,02,07,04,59,-8.20
2014,02,07,05,00,-8.20
2014,02,07,05,01,-8.20
2014,02,07,05,02,-8.20
2014,02,07,05,03,-8.20
2014,02,07,05,04,-8.20
2014,02,07,05,05,-8.30
2014,02,07,05,06,-8.30
2014,02,07,05,07,-8.30
2014,02,07,05,08,-8.30
2014,02,07,05,09,-8.30
2014,02,07,05,10,-8.30
2014,02,07,05,11,-8.30
2014,02,07,05,12,-8.30
2014,02,07,05,13,-8.30
2014,02,07,05,14,-8.30
2014,02,07,05,15,-8.30
2014,02,07,05,16,-8.20
2014,02,07,05,17,-8.20
2014,02,07,05,18,-8.20
2014,02,07,05,19,-8.20
2014,02,07,05,20,-8.20
2014,02,07,05,21,-8.30
2014,02,07,05,22,-8.20
2014,02,07,05,23,-8.20
2014,02,07,05,24,-8.20
2014,02,07,05,25,-8.20
2014,02,07,05,26,-8.20
2014,02,07,05,27,-8.20
2014,02,07,05,28,-8.20
2014,02,07,05,29,-8.20
2014,02,07,05,30,-8.20
2014,02,07,05,31,-8.20
2014,02,07,05,32,-8.10
2014,02,07,05,33,-8.10
2014,02,07,05,34,-8.10
2014,02,07,05,35,-8.10
2014,02,07,05,36,-8.10
2014,02,07,05,37,-8.10
2014,02,07,05,38,-8.10
2014,02,07,05,39,-8.10
2014,02,07,05,40,-8.00
2014,02,07,05,41,-8.00
2014,02,07,05,42,-8.00
2014,02,07,05,43,-8.00
2014,02,07,05,44,-8.00
2014,02,07,05,45,-7.90
2014,02,07,05,46,-7.90
2014,02,07,05,47,-7.90
2014,02,07,05,48,-7.90
2014,02,07,05,49,-7.90
2014,02,07,05,50,-7.90
2014,02,07,05,51,-7.90
2014,02,07,05,52,-7.90
2014,02,07,05,53,-7.90
2014,02,07,05,54,-7.80
2014,02,07,05,55,-7.80
2014,02,07,05,56,-7.80
2014,02,07,05,57,-7.80
2014,02,07,05,58,-7.80
2014,02,07,05,59,-7.80
2014,02,07,06,00,-7.80
2014,02,07,06,01,-7.80
2014,02,07,06,02,-7.80
2014,02,07,06,03,-7.80
2014,02,07,06,04,-7.80
2014,02,07,06,05,-7.80
2014,02,07,06,06,-7.80
2014,02,07,06,07,-7.80
2014,02,07,06,08,-7.80
2014,02,07,06,09,-7.80
2014,02,07,06,10,-7.80
2014,02,07,06,11,-7.80
2014,02,07,06,12,-7.80
2014,02,07,06,13,-7.80
2014,02,07,06,14,-7.80
2014,02,07,06,15,-7.80
2014,02,07,06,16,-7.80
2014,02,07,06,17,-7.80
2014,02,07,06,18,-7.80
2014,02,07,06,19,-7.80
2014,02,07,06,20,-7.80
2014,02,07,06,21,-7.80
2014,02,07,06,22,-7.80
2014,02,07,06,23,-7.80
2014,02,07,06,24,-7.90
2014,02,07,06,25,-7.90
2014,02,07,06,26,-7.90
2014,02,07,06,27,-7.90
2014,02,07,06,28,-7.90
2014,02,07,06,29,-7.90
2014,02,07,06,30,-7.90
2014,02,07,06,31,-7.90
2014,02,07,06,32,-7.90
2014,02,07,06,33,-7.90
2014,02,07,06,34,-7.90
2014,02,07,06,35,-7.90
2014,02,07,06,36,-7.90
2014,02,07,06,37,-7.90
2014,02,07,06,38,-7.90
2014,02,07,06,39,-7.90
2014,02,07,06,40,-7.80
2014,02,07,06,41,-7.80
2014,02,07,06,42,-7.80
2014,02,07,06,43,-7.80
2014,02,07,06,44,-7.80
2014,02,07,06,45,-7.80
2014,02,07,06,46,-7.80
2014,02,07,06,47,-7.80
2014,02,07,06,48,-7.80
2014,02,07,06,49,-7.80
2014,02,07,06,50,-7.80
2014,02,07,06,51,-7.80
2014,02,07,06,52,-7.90
2014,02,07,06,53,-7.90
2014,02,07,06,54,-7.90
2014,02,07,06,55,-7.90
2014,02,07,06,56,-7.90
2014,02,07,06,57,-7.90
2014,02,07,06,58,-7.90
2014,02,07,06,59,-7.90
2014,02,07,07,00,-7.90
2014,02,07,07,01,-7.90
2014,02,07,07,02,-7.90
2014,02,07,07,03,-7.90
2014,02,07,07,04,-7.90
2014,02,07,07,05,-7.90
2014,02,07,07,06,-7.90
2014,02,07,07,07,-7.90
2014,02,07,07,08,-7.90
2014,02,07,07,09,-7.90
2014,02,07,07,10,-7.90
2014,02,07,07,11,-7.90
2014,02,07,07,12,-7.90
2014,02,07,07,13,-7.90
2014,02,07,07,14,-7.90
2014,02,07,07,15,-7.90
2014,02,07,07,16,-7.90
2014,02,07,07,17,-7.90
2014,02,07,07,18,-7.90
2014,02,07,07,19,-7.90
2014,02,07,07,20,-7.90
2014,02,07,07,21,-8.00
2014,02,07,07,22,-8.00
2014,02,07,07,23,-8.00
2014,02,07,07,24,-8.00
2014,02,07,07,25,-8.00
2014,02,07,07,26,-8.00
2014,02,07,07,27,-8.00
2014,02,07,07,28,-8.00
2014,02,07,07,29,-8.00
2014,02,07,07,30,-8.10
2014,02,07,07,31,-8.10
2014,02,07,07,32,-8.10
2014,02,07,07,33,-8.10
2014,02,07,07,34,-8.10
2014,02,07,07,35,-8.10
2014,02,07,07,36,-8.10
2014,02,07,07,37,-8.10
2014,02,07,07,38,-8.10
2014,02,07,07,39,-8.10
2014,02,07,07,40,-8.10
2014,02,07,07,41,-8.10
2014,02,07,07,42,-8.10
2014,02,07,07,43,-8.10
2014,02,07,07,44,-8.10
2014,02,07,07,45,-8.10
2014,02,07,07,46,-8.10
2014,02,07,07,47,-8.10
2014,02,07,07,48,-8.10
2014,02,07,07,49,-8.10
2014,02,07,07,50,-8.10
2014,02,07,07,51,-8.10
2014,02,07,07,52,-8.10
2014,02,07,07,53,-8.10
2014,02,07,07,54,-8.10
2014,02,07,07,55,-8.10
2014,02,07,07,56,-8.10
2014,02,07,07,57,-8.10
2014,02,07,07,58,-8.10
2014,02,07,07,59,-8.10
2014,02,07,08,00,-8.10
2014,02,07,08,01,-8.10
2014,02,07,08,02,-8.10
2014,02,07,08,03,-8.10
2014,02,07,08,04,-8.10
2014,02,07,08,05,-8.10
2014,02,07,08,06,-8.10
2014,02,07,08,07,-8.10
2014,02,07,08,08,-8.10
2014,02,07,08,09,-8.10
2014,02,07,08,10,-8.00
2014,02,07,08,11,-8.00
2014,02,07,08,12,-8.00
2014,02,07,08,13,-8.00
2014,02,07,08,14,-8.00
2014,02,07,08,15,-8.00
2014,02,07,08,16,-8.00
2014,02,07,08,17,-8.00
2014,02,07,08,18,-8.00
2014,02,07,08,19,-8.00
2014,02,07,08,20,-8.00
2014,02,07,08,21,-7.90
2014,02,07,08,22,-7.90
2014,02,07,08,23,-7.90
2014,02,07,08,24,-7.90
2014,02,07,08,25,-7.90
2014,02,07,08,26,-7.90
2014,02,07,08,27,-7.90
2014,02,07,08,28,-7.90
2014,02,07,08,29,-7.90
2014,02,07,08,30,-7.90
2014,02,07,08,31,-7.90
2014,02,07,08,32,-7.90
2014,02,07,08,33,-7.90
2014,02,07,08,34,-7.90
2014,02,07,08,35,-7.90
2014,02,07,08,36,-7.90
2014,02,07,08,37,-7.80
2014,02,07,08,38,-7.80
2014,02,07,08,39,-7.80
2014,02,07,08,40,-7.80
2014,02,07,08,41,-7.80
2014,02,07,08,42,-7.80
2014,02,07,08,43,-7.80
2014,02,07,08,44,-7.80
2014,02,07,08,45,-7.80
2014,02,07,08,46,-7.70
2014,02,07,08,47,-7.70
2014,02,07,08,48,-7.70
2014,02,07,08,49,-7.70
2014,02,07,08,50,-7.70
2014,02,07,08,51,-7.70
2014,02,07,08,52,-7.70
2014,02,07,08,53,-7.60
2014,02,07,08,54,-7.60
2014,02,07,08,55,-7.60
2014,02,07,08,56,-7.60
2014,02,07,08,57,-7.60
2014,02,07,08,58,-7.50
2014,02,07,08,59,-7.50
2014,02,07,09,00,-7.50
2014,02,07,09,01,-7.40
2014,02,07,09,02,-7.40
2014,02,07,09,03,-7.40
2014,02,07,09,04,-7.30
2014,02,07,09,05,-7.30
2014,02,07,09,06,-7.30
2014,02,07,09,07,-7.30
2014,02,07,09,08,-7.20
2014,02,07,09,09,-7.20
2014,02,07,09,10,-7.20
2014,02,07,09,11,-7.10
2014,02,07,09,12,-7.10
2014,02,07,09,13,-7.10
2014,02,07,09,14,-7.00
2014,02,07,09,15,-7.00
2014,02,07,09,16,-6.90
2014,02,07,09,17,-6.90
2014,02,07,09,18,-6.90
2014,02,07,09,19,-6.80
2014,02,07,09,20,-6.80
2014,02,07,09,21,-6.80
2014,02,07,09,22,-6.70
2014,02,07,09,23,-6.70
2014,02,07,09,24,-6.70
2014,02,07,09,25,-6.70
2014,02,07,09,26,-6.60
2014,02,07,09,27,-6.60
2014,02,07,09,28,-6.60
2014,02,07,09,29,-6.60
2014,02,07,09,30,-6.60
2014,02,07,09,31,-6.50
2014,02,07,09,32,-6.50
2014,02,07,09,33,-6.40
2014,02,07,09,34,-6.40
2014,02,07,09,35,-6.40
2014,02,07,09,36,-6.30
2014,02,07,09,37,-6.30
2014,02,07,09,38,-6.30
2014,02,07,09,39,-6.20
2014,02,07,09,40,-6.20
2014,02,07,09,41,-6.20
2014,02,07,09,42,-6.20
2014,02,07,09,43,-6.20
2014,02,07,09,44,-6.10
2014,02,07,09,45,-6.10
2014,02,07,09,46,-6.00
2014,02,07,09,47,-6.00
2014,02,07,09,48,-5.90
2014,02,07,09,49,-5.90
2014,02,07,09,50,-5.90
2014,02,07,09,51,-5.80
2014,02,07,09,52,-5.80
2014,02,07,09,53,-5.80
2014,02,07,09,54,-5.70
2014,02,07,09,55,-5.70
2014,02,07,09,56,-5.70
2014,02,07,09,57,-5.70
2014,02,07,09,58,-5.70
2014,02,07,09,59,-5.60
2014,02,07,10,00,-5.60
2014,02,07,10,01,-5.60
2014,02,07,10,02,-5.60
2014,02,07,10,03,-5.50
2014,02,07,10,04,-5.50
2014,02,07,10,05,-5.40
2014,02,07,10,06,-5.40
2014,02,07,10,07,-5.40
2014,02,07,10,08,-5.30
2014,02,07,10,09,-5.30
2014,02,07,10,10,-5.20
2014,02,07,10,11,-5.20
2014,02,07,10,12,-5.10
2014,02,07,10,13,-5.00
2014,02,07,10,14,-4.90
2014,02,07,10,15,-4.80
2014,02,07,10,16,-4.80
2014,02,07,10,17,-4.70
2014,02,07,10,18,-4.60
2014,02,07,10,19,-4.50
2014,02,07,10,20,-4.50
2014,02,07,10,21,-4.40
2014,02,07,10,22,-4.40
2014,02,07,10,23,-4.30
2014,02,07,10,24,-4.30
2014,02,07,10,25,-4.20
2014,02,07,10,26,-4.20
2014,02,07,10,27,-4.10
2014,02,07,10,28,-4.00
2014,02,07,10,29,-3.90
2014,02,07,10,30,-3.90
2014,02,07,10,31,-3.80
2014,02,07,10,32,-3.80
2014,02,07,10,33,-3.70
2014,02,07,10,34,-3.70
2014,02,07,10,35,-3.60
2014,02,07,10,36,-3.60
2014,02,07,10,37,-3.50
2014,02,07,10,38,-3.40
2014,02,07,10,39,-3.40
2014,02,07,10,40,-3.30
2014,02,07,10,41,-3.30
2014,02,07,10,42,-3.20
2014,02,07,10,43,-3.20
2014,02,07,10,44,-3.10
2014,02,07,10,45,-3.10
2014,02,07,10,46,-3.00
2014,02,07,10,47,-2.90
2014,02,07,10,48,-2.90
2014,02,07,10,49,-2.80
2014,02,07,10,50,-2.80
2014,02,07,10,51,-2.70
2014,02,07,10,52,-2.70
2014,02,07,10,53,-2.60
2014,02,07,10,54,-2.60
2014,02,07,10,55,-2.50
2014,02,07,10,56,-2.50
2014,02,07,10,57,-2.40
2014,02,07,10,58,-2.40
2014,02,07,10,59,-2.30
2014,02,07,11,00,-2.20
2014,02,07,11,01,-2.20
2014,02,07,11,02,-2.10
2014,02,07,11,03,-2.00
2014,02,07,11,04,-2.00
2014,02,07,11,05,-1.90
2014,02,07,11,06,-1.80
2014,02,07,11,07,-1.80
2014,02,07,11,08,-1.70
2014,02,07,11,09,-1.70
2014,02,07,11,10,-1.60
2014,02,07,11,11,-1.60
2014,02,07,11,12,-1.60
2014,02,07,11,13,-1.60
2014,02,07,11,14,-1.60
2014,02,07,11,15,-1.50
2014,02,07,11,16,-1.50
2014,02,07,11,17,-1.50
2014,02,07,11,18,-1.40
2014,02,07,11,19,-1.40
2014,02,07,11,20,-1.40
2014,02,07,11,21,-1.40
2014,02,07,11,22,-1.40
2014,02,07,11,23,-1.40
2014,02,07,11,24,-1.40
2014,02,07,11,25,-1.40
2014,02,07,11,26,-1.40
2014,02,07,11,27,-1.40
2014,02,07,11,28,-1.40
2014,02,07,11,29,-1.40
2014,02,07,11,30,-1.40
2014,02,07,11,31,-1.50
2014,02,07,11,32,-1.40
2014,02,07,11,33,-1.40
2014,02,07,11,34,-1.40
2014,02,07,11,35,-1.40
2014,02,07,11,36,-1.40
2014,02,07,11,37,-1.40
2014,02,07,11,38,-1.40
2014,02,07,11,39,-1.40
2014,02,07,11,40,-1.30
2014,02,07,11,41,-1.30
2014,02,07,11,42,-1.30
2014,02,07,11,43,-1.30
2014,02,07,11,44,-1.30
2014,02,07,11,45,-1.20
2014,02,07,11,46,-1.20
2014,02,07,11,47,-1.20
2014,02,07,11,48,-1.10
2014,02,07,11,49,-1.10
2014,02,07,11,50,-1.00
2014,02,07,11,51,-1.00
2014,02,07,11,52,-0.90
2014,02,07,11,53,-0.90
2014,02,07,11,54,-0.90
2014,02,07,11,55,-0.80
2014,02,07,11,56,-0.70
2014,02,07,11,57,-0.70
2014,02,07,11,58,-0.70
2014,02,07,11,59,-0.60
2014,02,07,12,00,-0.60
2014,02,07,12,01,-0.50
2014,02,07,12,02,-0.50
2014,02,07,12,03,-0.40
2014,02,07,12,04,-0.30
2014,02,07,12,05,-0.30
2014,02,07,12,06,-0.30
2014,02,07,12,07,-0.20
2014,02,07,12,08,-0.10
2014,02,07,12,09,-0.10
2014,02,07,12,10,-0.10
2014,02,07,12,11,-0.10
2014,02,07,12,12,0.00
2014,02,07,12,13,0.00
2014,02,07,12,14,0.10
2014,02,07,12,15,0.10
2014,02,07,12,16,0.10
2014,02,07,12,17,0.10
2014,02,07,12,18,0.10
2014,02,07,12,19,0.10
2014,02,07,12,20,0.20
2014,02,07,12,21,0.20
2014,02,07,12,22,0.20
2014,02,07,12,23,0.30
2014,02,07,12,24,0.30
2014,02,07,12,25,0.40
2014,02,07,12,26,0.40
2014,02,07,12,27,0.50
2014,02,07,12,28,0.60
2014,02,07,12,29,0.60
2014,02,07,12,30,0.70
2014,02,07,12,31,0.80
2014,02,07,12,32,0.80
2014,02,07,12,33,0.90
2014,02,07,12,34,1.00
2014,02,07,12,35,1.10
2014,02,07,12,36,1.10
2014,02,07,12,37,1.20
2014,02,07,12,38,1.30
2014,02,07,12,39,1.40
2014,02,07,12,40,1.40
2014,02,07,12,41,1.50
2014,02,07,12,42,1.60
2014,02,07,12,43,1.60
2014,02,07,12,44,1.60
2014,02,07,12,45,1.60
2014,02,07,12,46,1.60
2014,02,07,12,47,1.60
2014,02,07,12,48,1.60
2014,02,07,12,49,1.60
2014,02,07,12,50,1.60
2014,02,07,12,51,1.60
2014,02,07,12,52,1.60
2014,02,07,12,53,1.60
2014,02,07,12,54,1.60
2014,02,07,12,55,1.70
2014,02,07,12,56,1.70
2014,02,07,12,57,1.70
2014,02,07,12,58,1.70
2014,02,07,12,59,1.60
2014,02,07,13,00,1.50
2014,02,07,13,01,1.50
2014,02,07,13,02,1.40
2014,02,07,13,03,1.40
2014,02,07,13,04,1.40
2014,02,07,13,05,1.30
2014,02,07,13,06,1.30
2014,02,07,13,07,1.30
2014,02,07,13,08,1.30
2014,02,07,13,09,1.30
2014,02,07,13,10,1.20
2014,02,07,13,11,1.20
2014,02,07,13,12,1.20
2014,02,07,13,13,1.20
2014,02,07,13,14,1.10
2014,02,07,13,15,1.10
2014,02,07,13,16,1.10
2014,02,07,13,17,1.10
2014,02,07,13,18,1.10
2014,02,07,13,19,1.10
2014,02,07,13,20,1.20
2014,02,07,13,21,1.20
2014,02,07,13,22,1.20
2014,02,07,13,23,1.30
2014,02,07,13,24,1.30
2014,02,07,13,25,1.30
2014,02,07,13,26,1.40
2014,02,07,13,27,1.40
2014,02,07,13,28,1.40
2014,02,07,13,29,1.40
2014,02,07,13,30,1.40
2014,02,07,13,31,1.40
2014,02,07,13,32,1.50
2014,02,07,13,33,1.50
2014,02,07,13,34,1.50
2014,02,07,13,35,1.50
2014,02,07,13,36,1.50
2014,02,07,13,37,1.60
2014,02,07,13,38,1.60
2014,02,07,13,39,1.60
2014,02,07,13,40,1.60
2014,02,07,13,41,1.70
2014,02,07,13,42,1.70
2014,02,07,13,43,1.80
2014,02,07,13,44,1.80
2014,02,07,13,45,1.70
2014,02,07,13,46,1.70
2014,02,07,13,47,1.60
2014,02,07,13,48,1.60
2014,02,07,13,49,1.60
2014,02,07,13,50,1.60
2014,02,07,13,51,1.60
2014,02,07,13,52,1.60
2014,02,07,13,53,1.60
2014,02,07,13,54,1.60
2014,02,07,13,55,1.60
2014,02,07,13,56,1.60
2014,02,07,13,57,1.60
2014,02,07,13,58,1.50
2014,02,07,13,59,1.50
2014,02,07,14,00,1.40
2014,02,07,14,01,1.30
2014,02,07,14,02,1.30
2014,02,07,14,03,1.30
2014,02,07,14,04,1.30
2014,02,07,14,05,1.30
2014,02,07,14,06,1.30
2014,02,07,14,07,1.30
2014,02,07,14,08,1.30
2014,02,07,14,09,1.30
2014,02,07,14,10,1.30
2014,02,07,14,11,1.30
2014,02,07,14,12,1.30
2014,02,07,14,13,1.30
2014,02,07,14,14,1.30
2014,02,07,14,15,1.30
2014,02,07,14,16,1.30
2014,02,07,14,17,1.30
2014,02,07,14,18,1.30
2014,02,07,14,19,1.30
2014,02,07,14,20,1.30
2014,02,07,14,21,1.20
2014,02,07,14,22,1.20
2014,02,07,14,23,1.20
2014,02,07,14,24,1.10
2014,02,07,14,25,1.10
2014,02,07,14,26,1.10
2014,02,07,14,27,1.10
2014,02,07,14,28,1.10
2014,02,07,14,29,1.20
2014,02,07,14,30,1.20
2014,02,07,14,31,1.20
2014,02,07,14,32,1.30
2014,02,07,14,33,1.30
2014,02,07,14,34,1.30
2014,02,07,14,35,1.30
2014,02,07,14,36,1.30
2014,02,07,14,37,1.30
2014,02,07,14,38,1.30
2014,02,07,14,39,1.30
2014,02,07,14,40,1.30
2014,02,07,14,41,1.30
2014,02,07,14,42,1.30
2014,02,07,14,43,1.30
2014,02,07,14,44,1.30
2014,02,07,14,45,1.40
2014,02,07,14,46,1.40
2014,02,07,14,47,1.40
2014,02,07,14,48,1.40
2014,02,07,14,49,1.30
2014,02,07,14,50,1.30
2014,02,07,14,51,1.30
2014,02,07,14,52,1.30
2014,02,07,14,53,1.20
2014,02,07,14,54,1.20
2014,02,07,14,55,1.20
2014,02,07,14,56,1.20
2014,02,07,14,57,1.20
2014,02,07,14,58,1.20
2014,02,07,14,59,1.20
2014,02,07,15,00,1.20
2014,02,07,15,01,1.20
2014,02,07,15,02,1.20
2014,02,07,15,03,1.20
2014,02,07,15,04,1.20
2014,02,07,15,05,1.10
2014,02,07,15,06,1.10
2014,02,07,15,07,1.20
2014,02,07,15,08,1.20
2014,02,07,15,09,1.20
2014,02,07,15,10,1.20
2014,02,07,15,11,1.20
2014,02,07,15,12,1.20
2014,02,07,15,13,1.20
2014,02,07,15,14,1.20
2014,02,07,15,15,1.20
2014,02,07,15,16,1.20
2014,02,07,15,17,1.20
2014,02,07,15,18,1.20
2014,02,07,15,19,1.20
2014,02,07,15,20,1.20
2014,02,07,15,21,1.20
2014,02,07,15,22,1.20
2014,02,07,15,23,1.20
2014,02,07,15,24,1.20
2014,02,07,15,25,1.10
2014,02,07,15,26,1.10
2014,02,07,15,27,1.10
2014,02,07,15,28,1.10
2014,02,07,15,29,1.10
2014,02,07,15,30,1.10
2014,02,07,15,31,1.10
2014,02,07,15,32,1.10
2014,02,07,15,33,1.10
2014,02,07,15,34,1.00
2014,02,07,15,35,1.00
2014,02,07,15,36,1.00
2014,02,07,15,37,1.00
2014,02,07,15,38,0.90
2014,02,07,15,39,0.90
2014,02,07,15,40,0.90
2014,02,07,15,41,0.90
2014,02,07,15,42,0.90
2014,02,07,15,43,0.90
2014,02,07,15,44,0.80
2014,02,07,15,45,0.80
2014,02,07,15,46,0.80
2014,02,07,15,47,0.80
2014,02,07,15,48,0.70
2014,02,07,15,49,0.70
2014,02,07,15,50,0.60
2014,02,07,15,51,0.60
2014,02,07,15,52,0.60
2014,02,07,15,53,0.60
2014,02,07,15,54,0.60
2014,02,07,15,55,0.60
2014,02,07,15,56,0.50
2014,02,07,15,57,0.50
2014,02,07,15,58,0.50
2014,02,07,15,59,0.50
2014,02,07,16,00,0.50
2014,02,07,16,01,0.50
2014,02,07,16,02,0.50
2014,02,07,16,03,0.40
2014,02,07,16,04,0.40
2014,02,07,16,05,0.40
2014,02,07,16,06,0.40
2014,02,07,16,07,0.40
2014,02,07,16,08,0.40
2014,02,07,16,09,0.40
2014,02,07,16,10,0.40
2014,02,07,16,11,0.40
2014,02,07,16,12,0.40
2014,02,07,16,13,0.40
2014,02,07,16,14,0.40
2014,02,07,16,15,0.40
2014,02,07,16,16,0.30
2014,02,07,16,17,0.30
2014,02,07,16,18,0.30
2014,02,07,16,19,0.30
2014,02,07,16,20,0.30
2014,02,07,16,21,0.30
2014,02,07,16,22,0.20
2014,02,07,16,23,0.20
2014,02,07,16,24,0.20
2014,02,07,16,25,0.20
2014,02,07,16,26,0.20
2014,02,07,16,27,0.20
2014,02,07,16,28,0.20
2014,02,07,16,29,0.20
2014,02,07,16,30,0.20
2014,02,07,16,31,0.20
2014,02,07,16,32,0.10
2014,02,07,16,33,0.10
2014,02,07,16,34,0.10
2014,02,07,16,35,0.00
2014,02,07,16,36,0.00
2014,02,07,16,37,0.00
2014,02,07,16,38,0.00
2014,02,07,16,39,-0.10
2014,02,07,16,40,-0.10
2014,02,07,16,41,-0.10
2014,02,07,16,42,-0.10
2014,02,07,16,43,-0.10
2014,02,07,16,44,-0.10
2014,02,07,16,45,-0.20
2014,02,07,16,46,-0.20
2014,02,07,16,47,-0.20
2014,02,07,16,48,-0.20
2014,02,07,16,49,-0.20
2014,02,07,16,50,-0.20
2014,02,07,16,51,-0.20
2014,02,07,16,52,-0.30
2014,02,07,16,53,-0.30
2014,02,07,16,54,-0.30
2014,02,07,16,55,-0.30
2014,02,07,16,56,-0.30
2014,02,07,16,57,-0.30
2014,02,07,16,58,-0.40
2014,02,07,16,59,-0.40
2014,02,07,17,00,-0.40
2014,02,07,17,01,-0.40
2014,02,07,17,02,-0.50
2014,02,07,17,03,-0.50
2014,02,07,17,04,-0.50
2014,02,07,17,05,-0.50
2014,02,07,17,06,-0.50
2014,02,07,17,07,-0.60
2014,02,07,17,08,-0.60
2014,02,07,17,09,-0.60
2014,02,07,17,10,-0.60
2014,02,07,17,11,-0.60
2014,02,07,17,12,-0.60
2014,02,07,17,13,-0.60
2014,02,07,17,14,-0.70
2014,02,07,17,15,-0.70
2014,02,07,17,16,-0.70
2014,02,07,17,17,-0.70
2014,02,07,17,18,-0.70
2014,02,07,17,19,-0.70
2014,02,07,17,20,-0.70
2014,02,07,17,21,-0.80
2014,02,07,17,22,-0.80
2014,02,07,17,23,-0.80
2014,02,07,17,24,-0.80
2014,02,07,17,25,-0.80
2014,02,07,17,26,-0.80
2014,02,07,17,27,-0.80
2014,02,07,17,28,-0.90
2014,02,07,17,29,-0.90
2014,02,07,17,30,-0.90
2014,02,07,17,31,-0.90
2014,02,07,17,32,-1.00
2014,02,07,17,33,-1.00
2014,02,07,17,34,-1.00
2014,02,07,17,35,-1.00